Vorticity
nan nan nan nan nan nan nan nan nan nan nan nan nan nan nan nan nan nan nan nan nan nan nan nan nan nan nan nan nan nan nan nan nan nan nan nan nan nan nan nan nan nan nan nan nan nan nan nan nan
nan 4 3 5 6 7 8 5 10 7 6 -0 1 1 1 10 15 13 14 8 4 5 5 7 7 5 5 5 5 4 5 7 7 6 7 5 5 6 7 8 9 7 6 5 5 6 5 4 nan
nan 8 5 8 7 6 7 6 9 3 0 -1 3 3 6 7 7 12 11 6 4 4 6 9 7 5 5 5 5 6 6 7 8 9 8 8 6 6 8 9 8 7 6 5 5 6 5 5 nan
nan 7 6 7 9 12 8 9 2 5 3 8 8 4 10 8 11 13 7 2 4 5 6 7 6 6 5 5 5 6 7 7 9 14 14 10 7 6 7 8 8 6 6 6 5 5 5 4 nan
nan 6 8 9 14 11 9 10 5 6 11 8 3 5 5 9 13 6 3 5 4 4 6 6 7 5 5 4 5 7 8 7 7 14 15 8 7 6 6 7 6 6 5 5 6 6 5 5 nan
nan 7 7 11 12 7 10 7 5 4 4 4 6 6 3 11 10 2 8 6 6 5 5 6 5 5 5 5 6 7 7 7 7 9 8 7 7 7 5 6 6 7 6 4 5 5 5 5 nan
nan 9 1 10 11 6 11 9 8 7 1 7 2 -1 7 8 5 10 15 5 5 4 4 5 4 7 3 1 4 6 7 7 6 5 5 6 6 6 7 5 6 6 6 5 5 5 5 4 nan
nan 4 11 10 4 8 9 15 13 9 8 5 2 7 10 10 3 11 11 7 5 4 5 4 4 4 3 6 5 4 5 5 5 5 6 6 4 4 4 5 7 6 7 6 6 6 6 6 nan
nan 5 7 10 12 10 8 7 1 11 15 5 8 16 12 7 5 7 3 7 10 6 7 4 5 5 6 6 6 5 4 3 2 3 5 1 3 6 8 8 6 5 4 5 7 9 5 3 nan
nan 11 10 6 17 13 8 3 3 4 -2 7 20 20 11 2 6 7 1 9 13 7 5 4 6 6 6 5 5 5 4 3 4 5 3 3 9 8 6 8 6 4 4 4 5 5 4 5 nan
nan 6 1 5 8 7 14 5 3 5 6 18 14 5 3 3 3 3 5 5 13 10 7 9 7 7 7 6 5 6 8 8 8 7 7 7 5 6 5 7 6 7 5 3 6 5 6 6 nan
nan 1 8 6 8 11 8 8 9 14 21 18 7 5 6 4 4 4 4 6 8 8 7 7 6 7 7 7 8 7 6 8 8 7 6 7 9 8 7 8 7 7 7 7 6 7 5 4 nan
nan 6 15 6 8 15 10 5 14 22 19 10 8 6 5 5 4 5 3 7 6 5 6 5 6 6 6 8 9 8 6 8 9 8 8 7 7 7 7 7 7 7 7 7 6 7 7 7 nan
nan 18 11 5 6 6 8 9 13 12 9 7 7 5 3 6 3 4 6 6 4 6 7 5 7 8 7 5 9 8 8 9 8 7 9 8 7 7 7 7 7 7 6 5 7 14 8 8 nan
nan 3 13 6 8 4 3 3 13 15 7 6 6 6 7 6 5 4 6 7 5 6 8 6 6 8 6 5 4 6 9 10 11 10 9 8 8 8 6 6 7 8 9 9 11 10 8 9 nan
nan 8 1 7 3 2 5 10 8 11 9 8 7 5 7 6 5 11 9 5 6 6 9 13 7 5 6 6 4 5 6 8 9 8 8 9 10 6 7 7 7 6 6 6 10 8 10 9 nan
nan 22 9 9 3 9 4 16 11 6 8 7 6 9 6 3 9 12 4 4 9 6 6 9 10 10 8 6 6 5 6 7 8 8 10 8 7 9 7 7 7 7 8 7 6 8 9 8 nan
nan 12 6 8 -2 6 10 15 10 10 9 7 8 8 6 6 8 6 6 6 7 6 6 2 8 12 9 6 6 7 9 10 9 8 10 9 5 8 6 8 9 7 5 5 9 8 8 10 nan
nan 13 10 8 12 13 12 3 6 4 8 10 7 9 10 9 10 6 8 7 7 6 5 9 7 6 7 7 7 8 9 8 10 11 8 6 10 8 7 7 8 8 7 9 6 6 8 7 nan
nan 16 8 8 12 12 17 5 7 8 7 8 9 6 5 10 13 8 7 7 6 7 4 6 7 7 5 5 7 9 9 9 9 9 10 7 8 8 8 7 7 8 8 9 8 6 8 8 nan
nan 10 12 6 10 3 2 4 7 6 9 10 6 8 9 7 5 9 5 3 4 5 7 7 8 5 6 5 6 7 7 8 9 10 12 11 9 9 7 7 7 8 8 8 9 9 7 7 nan
nan 2 8 10 14 3 -0 5 5 12 10 10 7 7 9 9 7 7 5 6 7 5 7 6 6 8 8 7 6 8 7 8 7 8 9 12 11 8 8 9 7 7 8 8 8 7 8 10 nan
nan 5 8 8 7 8 5 12 5 9 14 14 12 8 11 13 11 10 9 7 5 7 7 7 8 5 6 8 5 6 7 6 8 9 8 13 16 9 4 4 7 7 7 9 8 7 7 5 nan
nan 8 9 14 11 9 8 10 11 13 12 6 13 13 11 11 11 10 10 9 7 8 8 7 8 6 5 5 7 7 6 5 6 9 8 6 6 5 8 13 12 9 7 9 8 8 8 7 nan
nan 10 10 10 15 15 10 5 12 13 15 11 11 18 15 7 8 11 9 9 11 11 7 7 7 7 7 7 8 6 6 6 8 7 7 7 11 9 7 9 9 10 10 10 10 9 8 8 nan
nan 15 7 6 8 15 7 1 7 11 11 15 11 3 14 19 10 10 7 8 10 10 8 8 8 7 8 7 7 8 7 7 9 7 9 9 9 14 13 5 7 9 10 9 8 8 8 8 nan
nan 10 11 8 13 9 5 10 5 -1 6 8 8 9 6 24 13 8 9 6 8 9 10 7 8 10 9 8 6 6 9 9 8 8 6 8 9 16 14 8 6 7 11 11 8 8 9 7 nan
nan 0 6 14 16 7 9 12 8 0 1 6 13 4 13 1 15 27 13 14 11 9 9 9 11 14 10 8 7 9 7 7 9 9 8 8 8 10 13 8 8 10 10 11 7 8 10 8 nan
nan 10 12 15 7 10 7 12 19 11 8 6 4 6 8 -6 20 13 16 22 20 17 10 12 12 13 12 10 8 8 9 9 8 8 8 8 9 9 10 10 9 10 10 8 8 8 10 9 nan
nan nan nan nan nan nan nan nan nan nan nan nan nan nan nan nan nan nan nan nan nan nan nan nan nan nan nan nan nan nan nan nan nan nan nan nan nan nan nan nan nan nan nan nan nan nan nan nan nan
CAPE
392 292 361 986 275 201 154 359 165 17 121 193 208 112 41 51 315 155 26 56 457 1048 1624 2005 2412 1887 1183 1406 1441 1243 1170 1201 1195 1309 1300 989 1030 970 1148 1671 1190 2016 2023 1967 2123 1779 1717 1773 1888
77 221 876 808 209 60 147 341 241 230 383 160 112 66 27 10 4 1 3 43 422 709 1057 1566 2466 2291 1511 1501 1479 1585 1547 1427 1406 1301 1323 1263 1182 924 1207 1541 1496 1894 2146 1970 1959 1959 1771 1886 1882
685 1180 915 790 85 28 116 302 66 80 276 373 115 64 77 48 60 10 0 136 327 494 889 1506 2629 2423 1569 1671 1791 1390 1289 1232 1072 1260 1283 1364 1135 972 1541 1273 1517 1832 2101 2040 2163 1960 1980 2000 1889
1152 1170 1268 534 129 208 0 102 69 57 108 141 81 52 63 72 68 0 1 37 103 708 1219 2118 2324 1789 1744 1835 1467 1336 1503 1471 1386 928 764 1262 1310 1306 1646 1452 1497 1777 1716 1641 2172 2174 1884 1851 1800
987 976 224 268 173 248 198 73 61 78 211 102 77 65 21 73 6 4 0 1 326 785 1062 1225 2233 2277 1732 1617 1453 1555 1584 1473 1572 967 907 1468 1419 1591 1731 1730 1716 1860 1692 1863 1869 1970 1974 1890 1660
607 337 139 148 161 119 158 81 189 126 189 166 74 60 62 26 7 7 0 199 524 634 593 813 2004 1942 1363 1552 1376 1488 1406 1571 1646 1410 1556 1611 1759 1650 1731 1823 1902 1879 1847 2016 1937 1898 1824 1721 1584
471 155 40 38 127 154 153 197 189 155 252 251 82 58 12 17 30 6 230 225 192 99 165 808 1272 985 1615 994 1391 1583 1413 1621 1722 1586 1604 1689 1674 1707 1749 1733 1633 1936 1768 1806 1828 1852 2031 1845 1461
549 165 218 59 177 250 151 109 291 187 374 250 40 10 29 41 0 0 17 72 43 3 24 575 934 1182 952 1130 1587 1392 1555 1409 1669 1688 1771 1647 1869 1765 1723 2095 2199 1737 1819 1726 1679 1594 1862 1834 1492
69 94 234 68 88 188 135 159 102 215 297 413 234 18 36 3 0 0 0 0 23 36 1 91 354 346 208 607 1005 1513 1525 1681 1549 1359 1536 1279 832 1213 1327 1648 1536 1675 1573 1608 1491 1498 1510 1390 1477
31 297 308 114 129 171 114 162 135 99 237 141 57 66 47 0 0 0 0 0 32 84 69 0 48 54 24 133 268 525 1133 922 1001 716 528 344 314 154 530 1438 1774 1692 1551 1389 1185 1344 1113 401 154
164 214 313 207 245 208 280 357 145 21 158 251 59 48 1 0 0 0 0 4 0 144 149 40 0 0 156 186 225 586 367 834 852 625 246 233 347 9 3 845 805 656 1134 404 595 347 168 14 34
206 493 361 356 342 211 330 341 280 181 320 174 36 9 0 0 0 0 0 0 0 23 117 65 155 284 218 458 877 127 155 638 678 889 154 196 362 202 323 707 672 448 79 4 157 15 0 0 0
76 108 291 436 189 149 387 142 0 378 370 219 47 0 0 0 0 0 0 0 0 1 48 81 155 442 618 273 661 435 106 241 664 698 567 15 2 224 140 251 388 327 9 0 74 191 0 1 11
106 260 300 435 442 429 494 292 374 286 155 127 46 0 0 0 0 0 0 0 0 0 2 51 119 396 208 905 833 532 167 223 830 1257 957 10 18 0 57 116 47 207 44 47 108 107 0 0 0
259 102 385 431 528 539 661 310 215 203 227 104 18 12 0 0 0 0 0 0 0 0 0 0 94 570 554 471 430 898 267 232 869 1054 775 325 23 49 156 127 0 242 383 365 200 99 17 114 79
107 56 236 448 808 109 964 479 258 148 122 84 68 4 0 0 0 0 0 0 0 3 35 0 105 135 149 618 429 825 998 1099 910 1155 1318 549 379 237 84 0 64 359 263 760 604 289 247 21 69
105 86 124 459 801 163 409 735 345 229 89 35 22 3 3 8 9 0 0 1 1 4 50 24 42 43 54 483 334 368 321 951 679 975 1378 719 886 380 27 0 0 44 123 56 141 274 201 244 225
38 45 131 168 604 640 808 800 360 223 231 79 18 0 7 9 2 0 0 0 0 2 39 10 136 256 361 288 159 137 489 1492 1255 1251 1286 608 755 609 191 87 67 3 41 5 205 184 221 222 344
32 7 142 91 225 531 793 955 673 301 331 208 88 26 3 8 0 0 0 0 0 0 3 6 39 434 668 651 475 796 1147 1014 1203 1542 1051 821 567 955 379 425 135 1 25 88 259 267 324 97 158
4 2 0 0 0 943 938 915 940 550 494 451 328 147 48 29 0 0 0 0 0 4 0 0 17 886 550 577 356 953 472 497 1199 1324 1656 895 1005 1111 887 749 254 56 212 143 86 223 214 218 62
0 0 6 13 0 776 895 889 875 947 664 622 605 555 440 450 170 0 0 0 0 0 0 0 0 273 274 380 774 707 1215 1080 1421 1545 1688 1419 1105 1277 1205 957 957 351 604 291 165 393 198 311 197
0 0 0 0 14 827 584 672 200 858 920 782 779 758 738 691 552 261 65 0 0 0 0 0 0 261 682 526 874 830 958 1034 1101 1128 1431 1647 1025 1134 1517 1217 1101 878 1088 683 385 263 484 415 325
0 0 0 0 0 0 147 209 344 610 946 1021 794 820 795 762 903 697 489 302 225 9 0 0 8 337 706 1392 617 1380 1415 1531 1039 889 1169 1865 1712 1380 1606 1575 1043 945 762 588 417 284 283 293 399
0 0 0 0 0 130 191 143 0 224 793 1022 905 824 706 718 841 896 722 652 560 101 0 0 466 284 418 861 1309 1634 1635 1385 1661 1308 394 22 800 151 62 7 1186 1395 929 702 676 642 345 325 577
0 0 0 9 0 74 18 12 8 114 191 469 868 734 794 708 638 616 697 692 451 138 1 0 401 311 307 897 1314 1442 1614 1994 1850 1260 79 0 482 113 177 123 443 1003 1098 1291 421 571 363 336 430
0 0 0 0 0 55 0 232 80 46 70 157 496 935 189 781 695 580 545 486 405 179 53 61 450 379 858 751 1906 1840 1550 1658 1982 2154 1431 768 1022 550 313 156 625 817 1385 1367 955 634 411 571 793
0 0 0 0 0 130 62 0 6 122 129 363 130 14 94 15 876 942 650 517 442 277 149 143 493 649 1090 1510 1206 1618 2585 2122 2032 1898 1829 1906 1768 1620 725 800 672 154 949 1710 1294 837 571 320 555
0 0 0 0 15 270 181 15 0 207 83 268 12 2 19 124 119 1159 1056 826 622 505 322 319 528 859 1227 1558 1904 1841 1782 2598 2554 2264 2571 2737 2422 2385 1019 700 672 577 1445 1930 1573 1455 1068 702 839
0 0 0 0 3 10 308 149 48 129 63 124 0 0 0 18 303 1557 1665 1334 1096 836 697 810 1043 1455 1683 1721 1918 2009 2242 2278 2429 2626 2345 2296 2335 2109 1920 1390 1109 1647 2402 2195 2028 1483 1143 1025 756
0 0 0 0 0 72 245 136 3 0 167 114 143 0 57 138 1572 1730 1810 1744 1598 1648 1288 2064 2577 2269 2084 1868 1827 1999 1992 2080 2029 2298 2282 2134 2180 2130 2234 2295 2575 2589 2598 2169 2162 1672 1559 1174 852